Time,TemperatureF,DewpointF,PressureIn,WindDirection,WindDirectionDegrees,WindSpeedMPH,WindSpeedGustMPH,Humidity,HourlyPrecipIn,Conditions,Clouds,dailyrainin,SoftwareType,DateUTC
2013-04-11 00:10:00,61.6,53.0,30.04,South,171,0.0,4.0,73,0.00,,,0.00,weatherlink.com 1.10,2013-04-11 04:10:00,
2013-04-11 00:25:00,61.4,53.0,30.04,SSE,162,1.0,4.0,73,0.00,,,0.00,weatherlink.com 1.10,2013-04-11 04:25:00,
2013-04-11 00:41:00,62.2,53.0,30.03,SSE,148,0.0,4.0,72,0.00,,,0.00,weatherlink.com 1.10,2013-04-11 04:41:00,
2013-04-11 00:56:00,62.5,53.0,30.02,SSW,208,0.0,3.0,72,0.00,,,0.00,weatherlink.com 1.10,2013-04-11 04:56:00,
2013-04-11 01:11:00,62.3,53.0,30.03,SSE,165,0.0,3.0,71,0.00,,,0.00,weatherlink.com 1.10,2013-04-11 05:11:00,
2013-04-11 01:26:00,61.8,53.0,30.03,SSW,195,1.0,3.0,73,0.00,,,0.00,weatherlink.com 1.10,2013-04-11 05:26:00,
2013-04-11 01:41:00,61.7,53.0,30.03,SSE,156,0.0,4.0,73,0.00,,,0.00,weatherlink.com 1.10,2013-04-11 05:41:00,
2013-04-11 01:56:00,62.0,53.0,30.02,NW,312,1.0,6.0,72,0.00,,,0.00,weatherlink.com 1.10,2013-04-11 05:56:00,
2013-04-11 02:11:00,61.7,53.0,30.02,SSE,163,2.0,4.0,73,0.00,,,0.00,weatherlink.com 1.10,2013-04-11 06:11:00,
2013-04-11 02:26:00,61.2,53.0,30.01,SSW,203,2.0,5.0,74,0.00,,,0.00,weatherlink.com 1.10,2013-04-11 06:26:00,
2013-04-11 02:42:00,61.1,53.0,30.01,NNE,26,1.0,4.0,74,0.00,,,0.00,weatherlink.com 1.10,2013-04-11 06:42:00,
2013-04-11 03:11:00,60.5,52.0,30.00,WSW,253,6.0,7.0,74,0.00,,,0.00,weatherlink.com 1.10,2013-04-11 07:11:00,
2013-04-11 03:26:00,60.7,52.0,30.00,SSE,160,0.0,10.0,73,0.00,,,0.00,weatherlink.com 1.10,2013-04-11 07:26:00,
2013-04-11 03:56:00,59.6,52.0,29.99,South,187,0.0,5.0,75,0.00,,,0.00,weatherlink.com 1.10,2013-04-11 07:56:00,
2013-04-11 04:11:00,59.4,51.0,29.99,East,84,1.0,3.0,75,0.00,,,0.00,weatherlink.com 1.10,2013-04-11 08:11:00,
2013-04-11 04:26:00,59.8,52.0,29.99,SSE,156,1.0,4.0,75,0.00,,,0.00,weatherlink.com 1.10,2013-04-11 08:26:00,
2013-04-11 04:41:00,59.9,52.0,29.99,East,89,6.0,7.0,74,0.00,,,0.00,weatherlink.com 1.10,2013-04-11 08:41:00,
2013-04-11 04:56:00,59.8,52.0,29.98,SSE,155,0.0,6.0,74,0.00,,,0.00,weatherlink.com 1.10,2013-04-11 08:56:00,
2013-04-11 05:11:00,59.3,51.0,29.99,SW,228,1.0,3.0,75,0.00,,,0.00,weatherlink.com 1.10,2013-04-11 09:11:00,
2013-04-11 05:26:00,59.1,52.0,30.00,South,169,3.0,3.0,76,0.00,,,0.00,weatherlink.com 1.10,2013-04-11 09:26:00,
2013-04-11 05:41:00,59.0,51.0,30.00,SSW,211,0.0,4.0,76,0.00,,,0.00,weatherlink.com 1.10,2013-04-11 09:41:00,
2013-04-11 05:56:00,58.6,51.0,30.00,SE,131,2.0,3.0,77,0.00,,,0.00,weatherlink.com 1.10,2013-04-11 09:56:00,
2013-04-11 06:11:00,58.5,52.0,30.00,SE,131,3.0,4.0,78,0.00,,,0.00,weatherlink.com 1.10,2013-04-11 10:11:00,
2013-04-11 06:26:00,58.9,52.0,30.00,SSE,160,0.0,4.0,77,0.00,,,0.00,weatherlink.com 1.10,2013-04-11 10:26:00,
2013-04-11 06:41:00,58.9,52.0,30.00,SSE,153,0.0,3.0,78,0.00,,,0.00,weatherlink.com 1.10,2013-04-11 10:41:00,
2013-04-11 06:56:00,59.5,52.0,30.00,WSW,253,1.0,4.0,77,0.00,,,0.00,weatherlink.com 1.10,2013-04-11 10:56:00,
2013-04-11 07:11:00,59.7,52.0,30.00,NE,46,0.0,2.0,77,0.00,,,0.00,weatherlink.com 1.10,2013-04-11 11:11:00,
2013-04-11 07:26:00,59.1,52.0,30.01,ESE,110,1.0,4.0,78,0.00,,,0.00,weatherlink.com 1.10,2013-04-11 11:26:00,
2013-04-11 07:41:00,58.6,52.0,30.01,SSE,158,0.0,2.0,79,0.00,,,0.00,weatherlink.com 1.10,2013-04-11 11:41:00,
2013-04-11 07:56:00,58.8,53.0,30.01,East,86,0.0,4.0,80,0.00,,,0.00,weatherlink.com 1.10,2013-04-11 11:56:00,
2013-04-11 08:11:00,59.0,53.0,30.01,East,94,1.0,4.0,79,0.00,,,0.00,weatherlink.com 1.10,2013-04-11 12:11:00,
2013-04-11 08:56:00,61.0,54.0,30.01,NNE,33,4.0,4.0,77,0.00,,,0.00,weatherlink.com 1.10,2013-04-11 12:56:00,
2013-04-11 09:11:00,62.2,54.0,30.01,NNE,13,0.0,5.0,74,0.00,,,0.00,weatherlink.com 1.10,2013-04-11 13:11:00,
2013-04-11 09:41:00,63.3,53.0,30.00,SW,236,2.0,7.0,68,0.00,,,0.00,weatherlink.com 1.10,2013-04-11 13:41:00,
2013-04-11 09:56:00,64.2,53.0,30.00,SSW,200,0.0,6.0,67,0.00,,,0.00,weatherlink.com 1.10,2013-04-11 13:56:00,
2013-04-11 10:11:00,65.0,52.0,29.99,East,81,3.0,8.0,64,0.00,,,0.00,weatherlink.com 1.10,2013-04-11 14:11:00,
2013-04-11 10:26:00,65.9,52.0,30.00,SSW,207,1.0,6.0,61,0.00,,,0.00,weatherlink.com 1.10,2013-04-11 14:26:00,
2013-04-11 10:57:00,65.4,52.0,30.00,WNW,291,2.0,9.0,63,0.00,,,0.00,weatherlink.com 1.10,2013-04-11 14:57:00,
2013-04-11 11:12:00,66.0,52.0,30.00,ESE,108,2.0,3.0,60,0.00,,,0.00,weatherlink.com 1.10,2013-04-11 15:12:00,
2013-04-11 11:27:00,65.9,51.0,30.00,ESE,109,2.0,6.0,59,0.00,,,0.00,weatherlink.com 1.10,2013-04-11 15:27:00,
2013-04-11 11:42:00,66.0,51.0,29.99,SW,224,1.0,8.0,58,0.00,,,0.00,weatherlink.com 1.10,2013-04-11 15:42:00,
2013-04-11 11:57:00,68.5,52.0,29.99,WNW,303,2.0,8.0,55,0.00,,,0.00,weatherlink.com 1.10,2013-04-11 15:57:00,
2013-04-11 12:12:00,69.9,51.0,29.98,NNW,340,1.0,7.0,52,0.00,,,0.00,weatherlink.com 1.10,2013-04-11 16:12:00,
2013-04-11 12:27:00,69.2,51.0,29.98,WNW,291,3.0,10.0,53,0.00,,,0.00,weatherlink.com 1.10,2013-04-11 16:27:00,
2013-04-11 12:42:00,69.6,51.0,29.97,NW,309,2.0,12.0,52,0.00,,,0.00,weatherlink.com 1.10,2013-04-11 16:42:00,
2013-04-11 12:57:00,71.0,51.0,29.96,NW,321,1.0,9.0,49,0.00,,,0.00,weatherlink.com 1.10,2013-04-11 16:57:00,
2013-04-11 13:12:00,71.7,50.0,29.95,SW,235,3.0,10.0,46,0.00,,,0.00,weatherlink.com 1.10,2013-04-11 17:12:00,
2013-04-11 13:27:00,71.8,50.0,29.94,NW,309,1.0,11.0,47,0.00,,,0.00,weatherlink.com 1.10,2013-04-11 17:27:00,
2013-04-11 13:42:00,70.9,51.0,29.93,WNW,302,4.0,10.0,50,0.00,,,0.00,weatherlink.com 1.10,2013-04-11 17:42:00,
2013-04-11 13:57:00,71.4,52.0,29.92,ESE,115,1.0,9.0,50,0.00,,,0.00,weatherlink.com 1.10,2013-04-11 17:57:00,
2013-04-11 14:12:00,71.7,52.0,29.91,NNE,17,2.0,10.0,50,0.00,,,0.00,weatherlink.com 1.10,2013-04-11 18:12:00,
2013-04-11 14:27:00,71.8,53.0,29.91,SE,132,1.0,8.0,51,0.00,,,0.00,weatherlink.com 1.10,2013-04-11 18:27:00,
2013-04-11 14:42:00,71.0,53.0,29.91,ESE,110,4.0,7.0,53,0.00,,,0.00,weatherlink.com 1.10,2013-04-11 18:42:00,
2013-04-11 14:57:00,71.9,53.0,29.90,North,11,1.0,6.0,52,0.00,,,0.00,weatherlink.com 1.10,2013-04-11 18:57:00,
2013-04-11 15:12:00,70.5,53.0,29.90,NE,53,1.0,11.0,54,0.00,,,0.00,weatherlink.com 1.10,2013-04-11 19:12:00,
2013-04-11 15:27:00,69.7,53.0,29.89,SSE,155,1.0,11.0,56,0.00,,,0.00,weatherlink.com 1.10,2013-04-11 19:27:00,
2013-04-11 15:42:00,68.9,53.0,29.88,East,82,1.0,6.0,58,0.00,,,0.00,weatherlink.com 1.10,2013-04-11 19:42:00,
2013-04-11 15:57:00,68.0,54.0,29.87,WNW,284,2.0,11.0,61,0.00,,,0.00,weatherlink.com 1.10,2013-04-11 19:57:00,
2013-04-11 16:27:00,68.3,55.0,29.84,WSW,249,1.0,12.0,62,0.00,,,0.00,weatherlink.com 1.10,2013-04-11 20:27:00,
2013-04-11 16:42:00,68.4,55.0,29.84,SW,215,1.0,6.0,62,0.00,,,0.00,weatherlink.com 1.10,2013-04-11 20:42:00,
2013-04-11 16:57:00,68.1,55.0,29.83,WNW,293,1.0,10.0,64,0.00,,,0.00,weatherlink.com 1.10,2013-04-11 20:57:00,
2013-04-11 17:12:00,67.9,55.0,29.84,NW,316,2.0,3.0,64,0.00,,,0.00,weatherlink.com 1.10,2013-04-11 21:12:00,
2013-04-11 17:27:00,67.2,56.0,29.83,NNE,30,2.0,5.0,67,0.00,,,0.00,weatherlink.com 1.10,2013-04-11 21:27:00,
2013-04-11 17:42:00,67.2,56.0,29.83,WNW,293,0.0,4.0,67,0.00,,,0.00,weatherlink.com 1.10,2013-04-11 21:42:00,
2013-04-11 17:57:00,67.7,56.0,29.82,North,360,5.0,7.0,67,0.00,,,0.00,weatherlink.com 1.10,2013-04-11 21:57:00,
2013-04-11 18:12:00,68.2,57.0,29.82,North,5,0.0,1.0,67,0.00,,,0.00,weatherlink.com 1.10,2013-04-11 22:12:00,
2013-04-11 18:27:00,68.1,57.0,29.81,ESE,114,1.0,5.0,67,0.00,,,0.00,weatherlink.com 1.10,2013-04-11 22:27:00,
2013-04-11 18:43:00,67.6,57.0,29.80,WNW,298,1.0,5.0,69,0.00,,,0.00,weatherlink.com 1.10,2013-04-11 22:43:00,
2013-04-11 18:58:00,67.3,57.0,29.80,SSE,158,0.0,10.0,69,0.00,,,0.00,weatherlink.com 1.10,2013-04-11 22:58:00,
2013-04-11 19:13:00,67.1,57.0,29.80,NNE,13,3.0,5.0,70,0.00,,,0.00,weatherlink.com 1.10,2013-04-11 23:13:00,
2013-04-11 19:28:00,65.0,59.0,29.81,West,277,1.0,3.0,80,0.00,,,0.00,weatherlink.com 1.10,2013-04-11 23:28:00,
2013-04-11 19:43:00,63.1,59.0,29.81,NNW,337,0.0,3.0,87,0.10,,,0.10,weatherlink.com 1.10,2013-04-11 23:43:00,
2013-04-11 19:58:00,61.5,59.0,29.80,WSW,246,0.0,1.0,91,0.10,,,0.10,weatherlink.com 1.10,2013-04-11 23:58:00,
2013-04-11 20:13:00,61.1,58.0,29.79,ENE,78,1.0,3.0,90,0.10,,,0.10,weatherlink.com 1.10,2013-04-12 00:13:00,
2013-04-11 20:28:00,61.5,59.0,29.78,East,84,0.0,2.0,91,0.10,,,0.10,weatherlink.com 1.10,2013-04-12 00:28:00,
2013-04-11 20:43:00,61.6,59.0,29.79,SSE,160,0.0,4.0,91,0.07,,,0.17,weatherlink.com 1.10,2013-04-12 00:43:00,
2013-04-11 20:58:00,61.0,59.0,29.79,WNW,291,0.0,5.0,94,0.24,,,0.34,weatherlink.com 1.10,2013-04-12 00:58:00,
2013-04-11 21:28:00,60.5,59.0,29.78,SE,133,4.0,5.0,94,0.23,,,0.34,weatherlink.com 1.10,2013-04-12 01:28:00,
2013-04-11 21:43:00,61.4,59.0,29.77,East,86,4.0,7.0,92,0.17,,,0.35,weatherlink.com 1.10,2013-04-12 01:43:00,
2013-04-11 21:58:00,62.0,59.0,29.77,North,356,6.0,6.0,91,0.01,,,0.35,weatherlink.com 1.10,2013-04-12 01:58:00,
2013-04-11 22:13:00,62.1,60.0,29.76,SE,128,0.0,7.0,92,0.02,,,0.36,weatherlink.com 1.10,2013-04-12 02:13:00,
2013-04-11 22:28:00,62.0,60.0,29.77,SSE,158,0.0,3.0,92,0.07,,,0.41,weatherlink.com 1.10,2013-04-12 02:28:00,
2013-04-11 22:43:00,61.4,60.0,29.77,SW,224,1.0,11.0,95,0.53,,,0.88,weatherlink.com 1.10,2013-04-12 02:43:00,
2013-04-11 22:58:00,58.3,57.0,29.81,West,281,3.0,6.0,94,0.92,,,1.27,weatherlink.com 1.10,2013-04-12 02:58:00,
2013-04-11 23:13:00,57.4,56.0,29.79,WNW,285,0.0,15.0,96,1.33,,,1.69,weatherlink.com 1.10,2013-04-12 03:13:00,
2013-04-11 23:28:00,57.4,56.0,29.79,South,177,1.0,5.0,96,1.40,,,1.81,weatherlink.com 1.10,2013-04-12 03:28:00,
2013-04-11 23:43:00,57.6,57.0,29.81,SSE,148,0.0,3.0,97,1.00,,,1.88,weatherlink.com 1.10,2013-04-12 03:43:00,
2013-04-11 23:58:00,57.4,56.0,29.82,SW,222,0.0,6.0,96,0.71,,,2.00,weatherlink.com 1.10,2013-04-12 03:58:00,